Location: Tierra del Sol
(32.6128°N, 116.3319°W)
Time: 18:54:22
(UTC-07:00)

Daily predictions for brighter satellites

Satellite Brightness Start Highest point End
(mag) Time Altitude Azimuth Time Altitude Azimuth Time Altitude Azimuth
USA 238 4.5 18:53:18 10° SW 19:00:14 59° WNW 19:07:11 10° NNE
ATLAS CENTAUR R/B 2.4 18:57:24 10° N 19:00:57 26° NE 19:04:14 10° ESE
Abrixas rocket 2.5 18:57:47 10° NW 19:01:07 73° SW 19:04:25 10° SE
SL-19 R/B 4.4 18:57:32 10° SSE 19:02:59 62° ENE 19:08:41 10° N
Atlas Centaur 2 3.3 18:54:50 10° W 19:03:25 74° S 19:11:21 10° ESE
Yuri Rocket 4.4 19:00:24 10° WSW 19:04:18 30° SSW 19:07:58 10° SE
Cosmos 1844 4.1 19:00:51 10° NNW 19:06:24 69° WSW 19:11:54 10° S
ALOS 4.0 19:05:40 10° E 19:08:04 14° ENE 19:10:28 10° NE
Cosmos 1437 3.2 19:06:36 10° N 19:09:42 40° E 19:12:47 10° SSE
ASC 2 Rocket 4.4 19:06:06 10° WSW 19:09:45 26° S 19:13:08 10° ESE
FREGAT/IRIS 3.5 19:07:01 10° SE 19:09:46 29° ENE 19:12:31 10° NNE
ASTRO E2 2.9 19:06:06 10° WSW 19:10:06 64° S 19:13:54 11° E
Cosmos 1766 3.5 19:07:27 10° SSE 19:11:13 46° E 19:15:02 10° NNE
Cosmos 1844 Rocket 4.2 19:09:41 10° NW 19:14:53 41° WSW 19:20:05 10° S
Spot 2 Rocket 4.1 19:12:51 10° SE 19:17:24 35° ENE 19:21:58 10° N
Cosmos 2237 Rocket 3.7 19:13:36 10° SW 19:18:54 40° WNW 19:24:14 10° N
OAO 3 Rocket 3.2 19:14:45 10° W 19:19:31 83° NNW 19:23:54 13° ENE
NOAA 12 4.1 19:15:40 10° SSE 19:20:49 62° ENE 19:26:01 10° N
Helios 1A 3.8 19:18:23 10° SE 19:22:02 30° ENE 19:25:42 10° N
Cosmos 2056 Rocket 3.7 19:18:32 10° N 19:23:52 55° ENE 19:29:09 10° SSE
Cosmos 2346 Rocket 4.4 19:17:50 10° N 19:23:56 86° E 19:29:59 10° S
COSMO-SKYMED 1 4.4 19:20:30 10° N 19:24:27 35° WNW 19:28:24 10° SW
SAR-Lupe-1 4.0 19:22:43 10° SSE 19:26:15 89° E 19:29:49 10° NNW
Cosmos 1953 3.0 19:24:28 10° SSE 19:28:00 31° E 19:31:33 10° NNE
ATLAS 5 CENTAUR R/B 1.7 19:25:54 10° SSW 19:30:30 61° ESE 19:35:25 10° NE
ATLAS CENTAUR R/B 3.3 19:26:27 10° SW 19:30:31 77° NW 19:42:56 10° NE
CZ-4C R/B 4.2 19:27:05 10° WSW 19:31:32 27° NW 19:36:24 10° N
Aureole 2 Rocket 3.3 19:27:15 10° SSW 19:31:37 72° WNW 19:35:59 10° NNE
NOSS 3-2 (C) 3.4 19:26:15 10° SSW 19:32:13 82° ESE 19:38:38 10° NNE
Cosmos 1371 Rocket 4.1 19:28:05 10° NNW 19:33:24 86° WSW 19:38:44 10° SSE
ASTEX 1 4.4 19:30:09 10° NE 19:34:06 24° E 19:38:01 10° SE
CENTAUR R/B 3.6 19:31:47 10° SSE 19:35:41 18° ESE 19:36:16 18° E
SL-16 R/B 2.6 19:31:49 10° SSW 19:37:27 68° WNW 19:43:08 10° NNE
HJ-1C 3.3 19:40:07 10° SSE 19:43:26 67° ENE 19:46:47 10° N
Tiangong 2 3.9 19:42:44 10° WSW 19:44:29 14° SW 19:46:13 10° S
Cosmos 1805 3.3 19:40:48 10° S 19:44:36 52° E 19:48:25 10° NNE
Cosmos 2034 Rocket 3.9 19:38:57 10° S 19:45:05 65° E 19:51:19 10° NNE
Cosmos 1766 Rocket 3.7 19:42:00 10° N 19:46:13 47° E 19:50:06 12° SSE
H-2A R/B 3.9 19:47:27 25° ENE 19:47:27 25° ENE 19:50:27 10° NNE
Cosmos 1464 Rocket 4.0 19:41:57 10° S 19:48:15 86° W 19:54:29 10° N
Cosmos 1624 Rocket 4.2 19:46:09 10° NNW 19:51:20 72° WSW 19:56:29 10° S
Meteor 1-29 3.1 19:49:37 10° N 19:53:08 78° WNW 19:56:37 10° SSW
Cosmos 724 4.2 19:48:29 10° SSW 19:54:18 70° ESE 20:00:18 10° NNE
SL-8 R/B 3.8 19:50:30 10° SSW 19:55:09 54° SE 19:57:10 31° ENE
Cosmos 1544 3.2 19:55:47 10° S 19:59:23 51° E 20:03:01 10° NNE
Cosmos 1378 3.9 19:56:04 10° NNW 19:59:42 54° W 20:03:20 10° S
METEOR-M 4.4 19:58:46 10° S 20:04:05 68° W 20:09:25 10° NNW
Abrixas 3.4 20:01:53 10° SW 20:03:58 38° SSW 20:03:58 38° SSW
Cosmos-2242 3.0 20:02:46 10° S 20:07:05 87° W 20:11:29 10° N
Cosmos 2278 Rocket 4.0 20:02:30 10° NW 20:07:25 31° WSW 20:12:19 10° SSW
Cosmos 1076 Rocket 3.7 20:03:41 10° N 20:08:00 71° W 20:12:19 10° S
Cosmos 1758 3.6 20:04:44 10° SSW 20:08:46 69° W 20:12:51 10° N
FENGYUN 3A 3.5 20:07:09 21° SSE 20:10:41 66° ENE 20:16:02 10° N
Cosmos 2297 4.0 20:05:50 10° NNW 20:11:26 66° WSW 20:16:59 10° S
ISS -1.0 20:10:21 10° SSW 20:11:02 15° SSW 20:11:02 15° SSW
Timation 1 Rocket 4.2 20:07:55 10° NNW 20:13:55 87° ENE 20:17:41 24° SSE
Helios 1B rocket 4.1 20:10:58 10° N 20:14:43 35° WNW 20:18:27 10° SW
Cosmos 1452 Rocket 3.3 20:15:24 10° NNW 20:20:40 77° ENE 20:22:15 46° SSE
CZ-4B DEB 3.8 20:21:56 41° NNW 20:21:56 41° NNW 20:24:10 10° NNW
Resurs 01 Rocket 2.8 20:17:09 10° S 20:21:23 43° W 20:25:37 10° NNW
OAO 1 Rocket 4.5 20:16:25 10° W 20:21:48 74° N 20:23:07 51° ENE
Cosmos 1408 Rocket 4.2 20:17:33 10° NNW 20:21:48 55° W 20:26:00 10° S
SeaSat 1 2.4 20:19:23 10° NNE 20:24:20 87° WNW 20:29:16 10° SSW
Cosmos 1603 3.8 20:18:48 10° SSW 20:24:30 76° WNW 20:30:16 10° NNE
Resurs 1-3 4.4 20:20:50 10° S 20:25:05 51° W 20:29:22 10° NNW
Cosmos 2369 Rocket 3.9 20:23:00 10° NNE 20:25:24 18° NE 20:25:24 18° NE
SEDSat Delta rocket 3.9 20:21:58 10° W 20:28:47 82° S 20:30:30 53° E
GPS 2-04 Rocket1 4.3 20:35:10 10° WSW 20:36:51 26° WSW 20:36:51 26° WSW
ATLAS CENTAUR R/B 3.7 20:36:58 10° WNW 20:39:44 18° WSW 20:41:34 13° SW
Cosmos 1420 Rocket 4.3 20:39:22 10° NNW 20:43:37 55° NNE 20:43:37 55° NNE
ALOS 3.1 20:43:08 30° SSW 20:45:03 47° W 20:49:33 10° NNW
Cosmos 1743 Rocket 4.3 20:44:19 10° NNW 20:47:52 50° NW 20:47:52 50° NW
ASTRO E2 4.4 20:46:38 10° W 20:48:52 31° W 20:48:52 31° W
BREEZE-M DEB (TANK) 3.8 20:35:35 10° NW 20:50:45 61° SW 20:51:56 51° S
Atlas Centaur 2 3.3 20:45:06 10° W 20:53:02 47° SSW 20:54:17 44° S
OAO 3 Rocket 4.3 20:58:29 10° W 21:01:43 41° WNW 21:01:43 41° WNW
Cosmos 1092 Rocket 4.2 21:03:56 10° NNW 21:10:03 65° W 21:10:19 64° WSW
Cosmos 1634 Rocket 4.5 21:18:19 53° WSW 21:19:03 56° W 21:25:11 10° N
CENTAUR R/B 3.4 21:19:43 10° SW 21:34:47 - NNE 21:23:41 41° WSW
